Etusivu
METAR-TAF:

METAR-TAF

Lentoasemat :

Dumas, Texas, Yhdysvallat

Leveyspiiri: 35-51-28N, Pituuspiiri: 102-00-47W, korkeus merenpinnasta: 1129 m

Tämänhetkinen sää

Tämä raportti tehtiin 26 minuuttia sitten, kello 04.55 UTC
Tuuli 6 kn kaakosta
Lämpötila 3°C
Kosteus 41%
Ilmanpaine 1025 hPa
Näkyvyys: 16.1 km
selkeää

METAR: KDUX 290455Z AUTO 14006KT 10SM CLR 03/M09 A3026 RMK AO2 T00261095

Aika: 23:21 (05:21 UTC)


TAF: puuttuu

Säähavainnot ja -ennusteet yli 4000 lentoasemalta (METAR- ja TAF-raportit).

Käytössä olevat sääasemat on merkitty karttaan keltaisilla ja punaisilla pisteillä.

Aseta hiiri pisteen päälle nähdäksesi sääaseman nimen.

Klikkaa sitten nähdäksesi säähavainnot ja -ennusteet.

Kartan vaihtaminen: klikkaa mustalla rastilla varustettuja vihreitä pisteitä, niin voit zoomata sisään; viivalla varustettua vihreää pistettä, niin voit zoomata ulos tai vihreitä nuolia, niin pääset viereisille kartoille.


METAR-TAF: